Retour au catalogue

STARLINK-36314

ActifCommunicationsSSO
NORAD 68741·PAYLOAD·🇺🇸 United States

Lancé Apr 15, 2026 depuis Vandenberg Space Force Base

Loading…

Prochains Passages (prochaines 24 heures)

TLE

FraisSource: CelesTrak SupGP

Époque: Sep 15, 2026, 03:01 UTC

1 68741C 26082P   26258.12618056  .00014179  00000+0  44004-3 0  2580
2 68741  97.2850 120.3067 0001876  98.5127  90.7188 15.33439739    13

Suivez STARLINK-36314 en temps réel avec AllMySat

Download on the App Store